Year,Month,Day,Hour,Minute,Value (Times are PST for temperature in C)
2006,10,13,00,00,8.20
2006,10,13,00,01,8.10
2006,10,13,00,02,8.10
2006,10,13,00,03,8.10
2006,10,13,00,04,8.10
2006,10,13,00,05,8.10
2006,10,13,00,06,8.10
2006,10,13,00,07,8.10
2006,10,13,00,08,8.00
2006,10,13,00,09,8.10
2006,10,13,00,10,8.10
2006,10,13,00,11,8.10
2006,10,13,00,12,8.10
2006,10,13,00,13,8.10
2006,10,13,00,14,8.10
2006,10,13,00,15,8.00
2006,10,13,00,16,8.00
2006,10,13,00,17,8.00
2006,10,13,00,18,8.00
2006,10,13,00,19,8.00
2006,10,13,00,20,8.00
2006,10,13,00,21,8.00
2006,10,13,00,22,8.00
2006,10,13,00,23,8.00
2006,10,13,00,24,8.00
2006,10,13,00,25,8.00
2006,10,13,00,26,8.00
2006,10,13,00,27,8.00
2006,10,13,00,28,8.00
2006,10,13,00,29,8.00
2006,10,13,00,30,8.00
2006,10,13,00,31,8.00
2006,10,13,00,32,8.00
2006,10,13,00,33,8.00
2006,10,13,00,34,8.00
2006,10,13,00,35,8.00
2006,10,13,00,36,8.00
2006,10,13,00,37,8.00
2006,10,13,00,38,8.00
2006,10,13,00,39,8.00
2006,10,13,00,40,8.00
2006,10,13,00,41,8.00
2006,10,13,00,42,8.00
2006,10,13,00,43,7.90
2006,10,13,00,44,7.90
2006,10,13,00,45,7.90
2006,10,13,00,46,7.90
2006,10,13,00,47,7.80
2006,10,13,00,48,7.80
2006,10,13,00,49,7.80
2006,10,13,00,50,7.80
2006,10,13,00,51,7.80
2006,10,13,00,52,7.80
2006,10,13,00,53,7.80
2006,10,13,00,54,7.80
2006,10,13,00,55,7.70
2006,10,13,00,56,7.70
2006,10,13,00,57,7.70
2006,10,13,00,58,7.70
2006,10,13,00,59,7.60
2006,10,13,01,00,7.60
2006,10,13,01,01,7.60
2006,10,13,01,02,7.60
2006,10,13,01,03,7.60
2006,10,13,01,04,7.60
2006,10,13,01,05,7.50
2006,10,13,01,06,7.50
2006,10,13,01,07,7.50
2006,10,13,01,08,7.50
2006,10,13,01,09,7.50
2006,10,13,01,10,7.50
2006,10,13,01,11,7.50
2006,10,13,01,12,7.50
2006,10,13,01,13,7.50
2006,10,13,01,14,7.50
2006,10,13,01,15,7.40
2006,10,13,01,16,7.30
2006,10,13,01,17,7.20
2006,10,13,01,18,7.20
2006,10,13,01,19,7.10
2006,10,13,01,20,7.10
2006,10,13,01,21,7.10
2006,10,13,01,22,7.00
2006,10,13,01,23,7.10
2006,10,13,01,24,7.10
2006,10,13,01,25,7.10
2006,10,13,01,26,7.10
2006,10,13,01,27,7.10
2006,10,13,01,28,7.20
2006,10,13,01,29,7.20
2006,10,13,01,30,7.20
2006,10,13,01,31,7.20
2006,10,13,01,32,7.20
2006,10,13,01,33,7.20
2006,10,13,01,34,7.10
2006,10,13,01,35,7.10
2006,10,13,01,36,7.10
2006,10,13,01,37,7.10
2006,10,13,01,38,7.10
2006,10,13,01,39,7.10
2006,10,13,01,40,7.20
2006,10,13,01,41,7.20
2006,10,13,01,42,7.20
2006,10,13,01,43,7.20
2006,10,13,01,44,7.20
2006,10,13,01,45,7.20
2006,10,13,01,46,7.20
2006,10,13,01,47,7.20
2006,10,13,01,48,7.10
2006,10,13,01,49,7.10
2006,10,13,01,50,7.10
2006,10,13,01,51,7.10
2006,10,13,01,52,7.00
2006,10,13,01,53,7.00
2006,10,13,01,54,7.00
2006,10,13,01,55,6.90
2006,10,13,01,56,6.90
2006,10,13,01,57,6.80
2006,10,13,01,58,6.80
2006,10,13,01,59,6.80
2006,10,13,02,00,6.80
2006,10,13,02,01,6.80
2006,10,13,02,02,6.80
2006,10,13,02,03,6.60
2006,10,13,02,04,6.60
2006,10,13,02,05,6.50
2006,10,13,02,06,6.40
2006,10,13,02,07,6.40
2006,10,13,02,08,6.40
2006,10,13,02,09,6.40
2006,10,13,02,10,6.30
2006,10,13,02,11,6.30
2006,10,13,02,12,6.30
2006,10,13,02,13,6.20
2006,10,13,02,14,6.20
2006,10,13,02,15,6.20
2006,10,13,02,16,6.20
2006,10,13,02,17,6.20
2006,10,13,02,18,6.20
2006,10,13,02,19,6.20
2006,10,13,02,20,6.20
2006,10,13,02,21,6.20
2006,10,13,02,22,6.20
2006,10,13,02,23,6.20
2006,10,13,02,24,6.20
2006,10,13,02,25,6.20
2006,10,13,02,26,6.30
2006,10,13,02,27,6.30
2006,10,13,02,28,6.30
2006,10,13,02,29,6.30
2006,10,13,02,30,6.30
2006,10,13,02,31,6.30
2006,10,13,02,32,6.30
2006,10,13,02,33,6.20
2006,10,13,02,34,6.20
2006,10,13,02,35,6.20
2006,10,13,02,36,6.20
2006,10,13,02,37,6.20
2006,10,13,02,38,6.20
2006,10,13,02,39,6.20
2006,10,13,02,40,6.20
2006,10,13,02,41,6.30
2006,10,13,02,42,6.30
2006,10,13,02,43,6.30
2006,10,13,02,44,6.30
2006,10,13,02,45,6.30
2006,10,13,02,46,6.30
2006,10,13,02,47,6.30
2006,10,13,02,48,6.30
2006,10,13,02,49,6.20
2006,10,13,02,50,6.20
2006,10,13,02,51,6.20
2006,10,13,02,52,6.20
2006,10,13,02,53,6.20
2006,10,13,02,54,6.10
2006,10,13,02,55,6.10
2006,10,13,02,56,6.10
2006,10,13,02,57,6.00
2006,10,13,02,58,6.00
2006,10,13,02,59,6.00
2006,10,13,03,00,5.90
2006,10,13,03,01,5.90
2006,10,13,03,02,5.90
2006,10,13,03,03,5.80
2006,10,13,03,04,5.80
2006,10,13,03,05,5.70
2006,10,13,03,06,5.70
2006,10,13,03,07,5.70
2006,10,13,03,08,5.70
2006,10,13,03,09,5.60
2006,10,13,03,10,5.60
2006,10,13,03,11,5.60
2006,10,13,03,12,5.50
2006,10,13,03,13,5.50
2006,10,13,03,14,5.50
2006,10,13,03,15,5.50
2006,10,13,03,16,5.50
2006,10,13,03,17,5.40
2006,10,13,03,18,5.40
2006,10,13,03,19,5.30
2006,10,13,03,20,5.30
2006,10,13,03,21,5.30
2006,10,13,03,22,5.30
2006,10,13,03,23,5.30
2006,10,13,03,24,5.30
2006,10,13,03,25,5.30
2006,10,13,03,26,5.20
2006,10,13,03,27,5.20
2006,10,13,03,28,5.20
2006,10,13,03,29,5.20
2006,10,13,03,30,5.20
2006,10,13,03,31,5.30
2006,10,13,03,32,5.30
2006,10,13,03,33,5.40
2006,10,13,03,34,5.40
2006,10,13,03,35,5.50
2006,10,13,03,36,5.60
2006,10,13,03,37,5.70
2006,10,13,03,38,5.70
2006,10,13,03,39,5.70
2006,10,13,03,40,5.70
2006,10,13,03,41,5.70
2006,10,13,03,42,5.70
2006,10,13,03,43,5.70
2006,10,13,03,44,5.70
2006,10,13,03,45,5.70
2006,10,13,03,46,5.60
2006,10,13,03,47,5.60
2006,10,13,03,48,5.60
2006,10,13,03,49,5.50
2006,10,13,03,50,5.40
2006,10,13,03,51,5.40
2006,10,13,03,52,5.30
2006,10,13,03,53,5.30
2006,10,13,03,54,5.30
2006,10,13,03,55,5.20
2006,10,13,03,56,5.10
2006,10,13,03,57,5.10
2006,10,13,03,58,5.10
2006,10,13,03,59,5.10
2006,10,13,04,00,5.10
2006,10,13,04,01,5.10
2006,10,13,04,02,5.10
2006,10,13,04,03,5.10
2006,10,13,04,04,5.10
2006,10,13,04,05,5.10
2006,10,13,04,06,5.20
2006,10,13,04,07,5.20
2006,10,13,04,08,5.30
2006,10,13,04,09,5.30
2006,10,13,04,10,5.30
2006,10,13,04,11,5.30
2006,10,13,04,12,5.30
2006,10,13,04,13,5.30
2006,10,13,04,14,5.30
2006,10,13,04,15,5.30
2006,10,13,04,16,5.30
2006,10,13,04,17,5.30
2006,10,13,04,18,5.30
2006,10,13,04,19,5.30
2006,10,13,04,20,5.20
2006,10,13,04,21,5.10
2006,10,13,04,22,5.00
2006,10,13,04,23,4.90
2006,10,13,04,24,4.80
2006,10,13,04,25,4.80
2006,10,13,04,26,4.70
2006,10,13,04,27,4.70
2006,10,13,04,28,4.60
2006,10,13,04,29,4.60
2006,10,13,04,30,4.60
2006,10,13,04,31,4.60
2006,10,13,04,32,4.60
2006,10,13,04,33,4.60
2006,10,13,04,34,4.60
2006,10,13,04,35,4.60
2006,10,13,04,36,4.50
2006,10,13,04,37,4.50
2006,10,13,04,38,4.50
2006,10,13,04,39,4.60
2006,10,13,04,40,4.60
2006,10,13,04,41,4.60
2006,10,13,04,42,4.60
2006,10,13,04,43,4.60
2006,10,13,04,44,4.60
2006,10,13,04,45,4.60
2006,10,13,04,46,4.60
2006,10,13,04,47,4.60
2006,10,13,04,48,4.60
2006,10,13,04,49,4.70
2006,10,13,04,50,4.70
2006,10,13,04,51,4.70
2006,10,13,04,52,4.70
2006,10,13,04,53,4.70
2006,10,13,04,54,4.70
2006,10,13,04,55,4.70
2006,10,13,04,56,4.70
2006,10,13,04,57,4.70
2006,10,13,04,58,4.60
2006,10,13,04,59,4.60
2006,10,13,05,00,4.60
2006,10,13,05,01,4.60
2006,10,13,05,02,4.60
2006,10,13,05,03,4.60
2006,10,13,05,04,4.60
2006,10,13,05,05,4.60
2006,10,13,05,06,4.60
2006,10,13,05,07,4.60
2006,10,13,05,08,4.60
2006,10,13,05,09,4.60
2006,10,13,05,10,4.60
2006,10,13,05,11,4.60
2006,10,13,05,12,4.60
2006,10,13,05,13,4.60
2006,10,13,05,14,4.50
2006,10,13,05,15,4.50
2006,10,13,05,16,4.50
2006,10,13,05,17,4.50
2006,10,13,05,18,4.50
2006,10,13,05,19,4.50
2006,10,13,05,20,4.50
2006,10,13,05,21,4.50
2006,10,13,05,22,4.50
2006,10,13,05,23,4.50
2006,10,13,05,24,4.50
2006,10,13,05,25,4.40
2006,10,13,05,26,4.30
2006,10,13,05,27,4.30
2006,10,13,05,28,4.20
2006,10,13,05,29,4.20
2006,10,13,05,30,4.10
2006,10,13,05,31,4.10
2006,10,13,05,32,4.10
2006,10,13,05,33,4.00
2006,10,13,05,34,4.00
2006,10,13,05,35,4.00
2006,10,13,05,36,3.90
2006,10,13,05,37,3.90
2006,10,13,05,38,3.80
2006,10,13,05,39,3.80
2006,10,13,05,40,3.80
2006,10,13,05,41,3.80
2006,10,13,05,42,3.80
2006,10,13,05,43,3.90
2006,10,13,05,44,4.00
2006,10,13,05,45,4.10
2006,10,13,05,46,4.20
2006,10,13,05,47,4.20
2006,10,13,05,48,4.40
2006,10,13,05,49,4.50
2006,10,13,05,50,4.50
2006,10,13,05,51,4.60
2006,10,13,05,52,4.60
2006,10,13,05,53,4.70
2006,10,13,05,54,4.70
2006,10,13,05,55,4.70
2006,10,13,05,56,4.70
2006,10,13,05,57,4.70
2006,10,13,05,58,4.70
2006,10,13,05,59,4.60
2006,10,13,06,00,4.60
2006,10,13,06,01,4.60
2006,10,13,06,02,4.60
2006,10,13,06,03,4.50
2006,10,13,06,04,4.50
2006,10,13,06,05,4.40
2006,10,13,06,06,4.30
2006,10,13,06,07,4.30
2006,10,13,06,08,4.20
2006,10,13,06,09,4.20
2006,10,13,06,10,4.20
2006,10,13,06,11,4.10
2006,10,13,06,12,4.10
2006,10,13,06,13,4.10
2006,10,13,06,14,4.10
2006,10,13,06,15,4.00
2006,10,13,06,16,4.00
2006,10,13,06,17,4.00
2006,10,13,06,18,4.00
2006,10,13,06,19,4.00
2006,10,13,06,20,4.00
2006,10,13,06,21,4.00
2006,10,13,06,22,4.00
2006,10,13,06,23,4.00
2006,10,13,06,24,4.00
2006,10,13,06,25,4.00
2006,10,13,06,26,4.00
2006,10,13,06,27,4.00
2006,10,13,06,28,4.00
2006,10,13,06,29,4.10
2006,10,13,06,30,4.10
2006,10,13,06,31,4.10
2006,10,13,06,32,4.00
2006,10,13,06,33,4.00
2006,10,13,06,34,3.90
2006,10,13,06,35,3.80
2006,10,13,06,36,3.80
2006,10,13,06,37,3.70
2006,10,13,06,38,3.70
2006,10,13,06,39,3.70
2006,10,13,06,40,3.60
2006,10,13,06,41,3.60
2006,10,13,06,42,3.60
2006,10,13,06,43,3.60
2006,10,13,06,44,3.60
2006,10,13,06,45,3.60
2006,10,13,06,46,3.60
2006,10,13,06,47,3.60
2006,10,13,06,48,3.60
2006,10,13,06,49,3.60
2006,10,13,06,50,3.60
2006,10,13,06,51,3.60
2006,10,13,06,52,3.60
2006,10,13,06,53,3.60
2006,10,13,06,54,3.60
2006,10,13,06,55,3.60
2006,10,13,06,56,3.60
2006,10,13,06,57,3.60
2006,10,13,06,58,3.60
2006,10,13,06,59,3.60
2006,10,13,07,00,3.60
2006,10,13,07,01,3.50
2006,10,13,07,02,3.50
2006,10,13,07,03,3.50
2006,10,13,07,04,3.40
2006,10,13,07,05,3.40
2006,10,13,07,06,3.30
2006,10,13,07,07,3.30
2006,10,13,07,08,3.30
2006,10,13,07,09,3.30
2006,10,13,07,10,3.30
2006,10,13,07,11,3.30
2006,10,13,07,12,3.30
2006,10,13,07,13,3.30
2006,10,13,07,14,3.30
2006,10,13,07,15,3.40
2006,10,13,07,16,3.50
2006,10,13,07,17,3.60
2006,10,13,07,18,3.70
2006,10,13,07,19,3.70
2006,10,13,07,20,3.80
2006,10,13,07,21,3.90
2006,10,13,07,22,4.00
2006,10,13,07,23,4.00
2006,10,13,07,24,4.00
2006,10,13,07,25,4.00
2006,10,13,07,26,4.00
2006,10,13,07,27,3.90
2006,10,13,07,28,3.90
2006,10,13,07,29,3.80
2006,10,13,07,30,3.80
2006,10,13,07,31,3.80
2006,10,13,07,32,3.80
2006,10,13,07,33,3.80
2006,10,13,07,34,3.80
2006,10,13,07,35,3.80
2006,10,13,07,36,3.80
2006,10,13,07,37,3.80
2006,10,13,07,38,3.80
2006,10,13,07,39,3.80
2006,10,13,07,40,3.80
2006,10,13,07,41,3.80
2006,10,13,07,42,3.80
2006,10,13,07,43,3.80
2006,10,13,07,44,3.80
2006,10,13,07,45,3.80
2006,10,13,07,46,3.80
2006,10,13,07,47,3.80
2006,10,13,07,48,3.80
2006,10,13,07,49,3.80
2006,10,13,07,50,3.80
2006,10,13,07,51,3.80
2006,10,13,07,52,3.80
2006,10,13,07,53,3.80
2006,10,13,07,54,3.80
2006,10,13,07,55,3.80
2006,10,13,07,56,3.80
2006,10,13,07,57,3.80
2006,10,13,07,58,3.80
2006,10,13,07,59,3.80
2006,10,13,08,00,3.80
2006,10,13,08,01,3.80
2006,10,13,08,02,3.80
2006,10,13,08,03,3.80
2006,10,13,08,04,3.80
2006,10,13,08,05,3.80
2006,10,13,08,06,3.80
2006,10,13,08,07,3.80
2006,10,13,08,08,3.80
2006,10,13,08,09,3.80
2006,10,13,08,10,3.90
2006,10,13,08,11,4.00
2006,10,13,08,12,4.10
2006,10,13,08,13,4.20
2006,10,13,08,14,4.30
2006,10,13,08,15,4.30
2006,10,13,08,16,4.40
2006,10,13,08,17,4.40
2006,10,13,08,18,4.40
2006,10,13,08,19,4.50
2006,10,13,08,20,4.50
2006,10,13,08,21,4.50
2006,10,13,08,22,4.60
2006,10,13,08,23,4.60
2006,10,13,08,24,4.60
2006,10,13,08,25,4.60
2006,10,13,08,26,4.70
2006,10,13,08,27,4.70
2006,10,13,08,28,4.70
2006,10,13,08,29,4.70
2006,10,13,08,30,4.70
2006,10,13,08,31,4.70
2006,10,13,08,32,4.70
2006,10,13,08,33,4.70
2006,10,13,08,34,4.80
2006,10,13,08,35,4.80
2006,10,13,08,36,4.80
2006,10,13,08,37,4.90
2006,10,13,08,38,4.90
2006,10,13,08,39,5.00
2006,10,13,08,40,5.10
2006,10,13,08,41,5.10
2006,10,13,08,42,5.10
2006,10,13,08,43,5.20
2006,10,13,08,44,5.30
2006,10,13,08,45,5.30
2006,10,13,08,46,5.30
2006,10,13,08,47,5.40
2006,10,13,08,48,5.40
2006,10,13,08,49,5.40
2006,10,13,08,50,5.50
2006,10,13,08,51,5.50
2006,10,13,08,52,5.50
2006,10,13,08,53,5.60
2006,10,13,08,54,5.60
2006,10,13,08,55,5.60
2006,10,13,08,56,5.70
2006,10,13,08,57,5.70
2006,10,13,08,58,5.80
2006,10,13,08,59,5.90
2006,10,13,09,00,5.90
2006,10,13,09,01,6.00
2006,10,13,09,02,6.00
2006,10,13,09,03,6.10
2006,10,13,09,04,6.10
2006,10,13,09,05,6.10
2006,10,13,09,06,6.10
2006,10,13,09,07,6.20
2006,10,13,09,08,6.10
2006,10,13,09,09,6.10
2006,10,13,09,10,6.10
2006,10,13,09,11,6.00
2006,10,13,09,12,5.90
2006,10,13,09,13,5.90
2006,10,13,09,14,5.90
2006,10,13,09,15,5.90
2006,10,13,09,16,5.90
2006,10,13,09,17,6.00
2006,10,13,09,18,6.00
2006,10,13,09,19,6.10
2006,10,13,09,20,6.20
2006,10,13,09,21,6.20
2006,10,13,09,22,6.30
2006,10,13,09,23,6.40
2006,10,13,09,24,6.60
2006,10,13,09,25,6.70
2006,10,13,09,26,6.80
2006,10,13,09,27,7.00
2006,10,13,09,28,7.00
2006,10,13,09,29,7.10
2006,10,13,09,30,7.20
2006,10,13,09,31,7.30
2006,10,13,09,32,7.30
2006,10,13,09,33,7.50
2006,10,13,09,34,7.60
2006,10,13,09,35,7.60
2006,10,13,09,36,7.70
2006,10,13,09,37,7.80
2006,10,13,09,38,7.90
2006,10,13,09,39,8.00
2006,10,13,09,40,8.20
2006,10,13,09,41,8.30
2006,10,13,09,42,8.40
2006,10,13,09,43,8.60
2006,10,13,09,44,8.70
2006,10,13,09,45,8.90
2006,10,13,09,46,9.10
2006,10,13,09,47,9.10
2006,10,13,09,48,9.40
2006,10,13,09,49,9.50
2006,10,13,09,50,9.60
2006,10,13,09,51,9.70
2006,10,13,09,52,9.90
2006,10,13,09,53,10.00
2006,10,13,09,54,10.20
2006,10,13,09,55,10.40
2006,10,13,09,56,10.50
2006,10,13,09,57,10.70
2006,10,13,09,58,10.80
2006,10,13,09,59,11.00
2006,10,13,10,00,11.20
2006,10,13,10,01,11.20
2006,10,13,10,02,11.20
2006,10,13,10,03,11.20
2006,10,13,10,04,11.20
2006,10,13,10,05,11.20
2006,10,13,10,06,11.20
2006,10,13,10,07,11.20
2006,10,13,10,08,11.20
2006,10,13,10,09,11.30
2006,10,13,10,10,11.30
2006,10,13,10,11,11.40
2006,10,13,10,12,11.50
2006,10,13,10,13,11.60
2006,10,13,10,14,11.70
2006,10,13,10,15,11.80
2006,10,13,10,16,11.80
2006,10,13,10,17,11.80
2006,10,13,10,18,11.80
2006,10,13,10,19,11.90
2006,10,13,10,20,11.90
2006,10,13,10,21,11.90
2006,10,13,10,22,11.90
2006,10,13,10,23,12.00
2006,10,13,10,24,12.00
2006,10,13,10,25,12.00
2006,10,13,10,26,12.10
2006,10,13,10,27,12.20
2006,10,13,10,28,12.30
2006,10,13,10,29,12.30
2006,10,13,10,30,12.40
2006,10,13,10,31,12.50
2006,10,13,10,32,12.60
2006,10,13,10,33,12.70
2006,10,13,10,34,12.80
2006,10,13,10,35,12.90
2006,10,13,10,36,13.00
2006,10,13,10,37,13.20
2006,10,13,10,38,13.30
2006,10,13,10,39,13.40
2006,10,13,10,40,13.50
2006,10,13,10,41,13.50
2006,10,13,10,42,13.50
2006,10,13,10,43,13.60
2006,10,13,10,44,13.60
2006,10,13,10,45,13.70
2006,10,13,10,46,13.80
2006,10,13,10,47,13.80
2006,10,13,10,48,13.90
2006,10,13,10,49,13.90
2006,10,13,10,50,13.90
2006,10,13,10,51,14.00
2006,10,13,10,52,14.10
2006,10,13,10,53,14.20
2006,10,13,10,54,14.20
2006,10,13,10,55,14.40
2006,10,13,10,56,14.50
2006,10,13,10,57,14.50
2006,10,13,10,58,14.50
2006,10,13,10,59,14.50
2006,10,13,11,00,14.40
2006,10,13,11,01,14.40
2006,10,13,11,02,14.30
2006,10,13,11,03,14.30
2006,10,13,11,04,14.20
2006,10,13,11,05,14.00
2006,10,13,11,06,14.00
2006,10,13,11,07,13.90
2006,10,13,11,08,13.90
2006,10,13,11,09,14.00
2006,10,13,11,10,14.10
2006,10,13,11,11,14.20
2006,10,13,11,12,14.20
2006,10,13,11,13,14.30
2006,10,13,11,14,14.40
2006,10,13,11,15,14.50
2006,10,13,11,16,14.50
2006,10,13,11,17,14.60
2006,10,13,11,18,14.70
2006,10,13,11,19,14.80
2006,10,13,11,20,15.00
2006,10,13,11,21,15.00
2006,10,13,11,22,15.20
2006,10,13,11,23,15.30
2006,10,13,11,24,15.20
2006,10,13,11,25,15.20
2006,10,13,11,26,15.10
2006,10,13,11,27,15.00
2006,10,13,11,28,15.00
2006,10,13,11,29,15.00
2006,10,13,11,30,14.90
2006,10,13,11,31,15.00
2006,10,13,11,32,15.00
2006,10,13,11,33,15.00
2006,10,13,11,34,15.00
2006,10,13,11,35,15.10
2006,10,13,11,36,15.30
2006,10,13,11,37,15.40
2006,10,13,11,38,15.60
2006,10,13,11,39,15.60
2006,10,13,11,40,15.70
2006,10,13,11,41,15.80
2006,10,13,11,42,15.80
2006,10,13,11,43,15.90
2006,10,13,11,44,15.90
2006,10,13,11,45,15.90
2006,10,13,11,46,15.90
2006,10,13,11,47,15.90
2006,10,13,11,48,15.90
2006,10,13,11,49,16.10
2006,10,13,11,50,16.10
2006,10,13,11,51,16.10
2006,10,13,11,52,16.00
2006,10,13,11,53,15.90
2006,10,13,11,54,15.90
2006,10,13,11,55,15.80
2006,10,13,11,56,15.80
2006,10,13,11,57,15.80
2006,10,13,11,58,15.80
2006,10,13,11,59,15.80
2006,10,13,12,00,15.80
2006,10,13,12,01,15.80
2006,10,13,12,02,15.80
2006,10,13,12,03,15.90
2006,10,13,12,04,16.10
2006,10,13,12,05,16.20
2006,10,13,12,06,16.40
2006,10,13,12,07,16.50
2006,10,13,12,08,16.60
2006,10,13,12,09,16.50
2006,10,13,12,10,16.40
2006,10,13,12,11,16.30
2006,10,13,12,12,16.30
2006,10,13,12,13,16.30
2006,10,13,12,14,16.30
2006,10,13,12,15,16.20
2006,10,13,12,16,16.30
2006,10,13,12,17,16.30
2006,10,13,12,18,16.30
2006,10,13,12,19,16.30
2006,10,13,12,20,16.30
2006,10,13,12,21,16.30
2006,10,13,12,22,16.40
2006,10,13,12,23,16.40
2006,10,13,12,24,16.40
2006,10,13,12,25,16.40
2006,10,13,12,26,16.40
2006,10,13,12,27,16.40
2006,10,13,12,28,16.30
2006,10,13,12,29,16.10
2006,10,13,12,30,16.10
2006,10,13,12,31,16.10
2006,10,13,12,32,16.10
2006,10,13,12,33,16.20
2006,10,13,12,34,16.30
2006,10,13,12,35,16.40
2006,10,13,12,36,16.40
2006,10,13,12,37,16.40
2006,10,13,12,38,16.30
2006,10,13,12,39,16.30
2006,10,13,12,40,16.30
2006,10,13,12,41,16.30
2006,10,13,12,42,16.30
2006,10,13,12,43,16.30
2006,10,13,12,44,16.40
2006,10,13,12,45,16.50
2006,10,13,12,46,16.60
2006,10,13,12,47,16.60
2006,10,13,12,48,16.50
2006,10,13,12,49,16.40
2006,10,13,12,50,16.40
2006,10,13,12,51,16.50
2006,10,13,12,52,16.60
2006,10,13,12,53,16.70
2006,10,13,12,54,16.60
2006,10,13,12,55,16.50
2006,10,13,12,56,16.40
2006,10,13,12,57,16.40
2006,10,13,12,58,16.40
2006,10,13,12,59,16.40
2006,10,13,13,00,16.40
2006,10,13,13,01,16.40
2006,10,13,13,02,16.30
2006,10,13,13,03,16.30
2006,10,13,13,04,16.30
2006,10,13,13,05,16.20
2006,10,13,13,06,16.10
2006,10,13,13,07,16.10
2006,10,13,13,08,16.10
2006,10,13,13,09,16.20
2006,10,13,13,10,16.10
2006,10,13,13,11,16.10
2006,10,13,13,12,16.10
2006,10,13,13,13,16.10
2006,10,13,13,14,16.10
2006,10,13,13,15,16.10
2006,10,13,13,16,15.90
2006,10,13,13,17,15.90
2006,10,13,13,18,15.90
2006,10,13,13,19,15.80
2006,10,13,13,20,15.80
2006,10,13,13,21,15.80
2006,10,13,13,22,15.80
2006,10,13,13,23,15.90
2006,10,13,13,24,16.00
2006,10,13,13,25,16.10
2006,10,13,13,26,16.10
2006,10,13,13,27,16.20
2006,10,13,13,28,16.30
2006,10,13,13,29,16.30
2006,10,13,13,30,16.30
2006,10,13,13,31,16.40
2006,10,13,13,32,16.40
2006,10,13,13,33,16.40
2006,10,13,13,34,16.30
2006,10,13,13,35,16.30
2006,10,13,13,36,16.20
2006,10,13,13,37,16.20
2006,10,13,13,38,16.10
2006,10,13,13,39,16.10
2006,10,13,13,40,16.10
2006,10,13,13,41,16.10
2006,10,13,13,42,16.10
2006,10,13,13,43,15.90
2006,10,13,13,44,15.90
2006,10,13,13,45,15.90
2006,10,13,13,46,15.80
2006,10,13,13,47,15.80
2006,10,13,13,48,15.80
2006,10,13,13,49,15.90
2006,10,13,13,50,16.00
2006,10,13,13,51,16.10
2006,10,13,13,52,16.20
2006,10,13,13,53,16.20
2006,10,13,13,54,16.10
2006,10,13,13,55,16.10
2006,10,13,13,56,16.10
2006,10,13,13,57,16.00
2006,10,13,13,58,16.10
2006,10,13,13,59,16.10
2006,10,13,14,00,16.10
2006,10,13,14,01,16.10
2006,10,13,14,02,16.10
2006,10,13,14,03,16.20
2006,10,13,14,04,16.20
2006,10,13,14,05,16.30
2006,10,13,14,06,16.30
2006,10,13,14,07,16.30
2006,10,13,14,08,16.30
2006,10,13,14,09,16.30
2006,10,13,14,10,16.30
2006,10,13,14,11,16.20
2006,10,13,14,12,16.20
2006,10,13,14,13,16.20
2006,10,13,14,14,16.20
2006,10,13,14,15,16.20
2006,10,13,14,16,16.20
2006,10,13,14,17,16.20
2006,10,13,14,18,16.20
2006,10,13,14,19,16.20
2006,10,13,14,20,16.20
2006,10,13,14,21,16.20
2006,10,13,14,22,16.20
2006,10,13,14,23,16.20
2006,10,13,14,24,16.10
2006,10,13,14,25,16.10
2006,10,13,14,26,16.00
2006,10,13,14,27,15.90
2006,10,13,14,28,15.90
2006,10,13,14,29,16.10
2006,10,13,14,30,16.10
2006,10,13,14,31,16.10
2006,10,13,14,32,16.00
2006,10,13,14,33,15.90
2006,10,13,14,34,15.90
2006,10,13,14,35,16.10
2006,10,13,14,36,16.10
2006,10,13,14,37,16.20
2006,10,13,14,38,16.20
2006,10,13,14,39,16.30
2006,10,13,14,40,16.20
2006,10,13,14,41,16.20
2006,10,13,14,42,16.10
2006,10,13,14,43,16.10
2006,10,13,14,44,16.10
2006,10,13,14,45,16.10
2006,10,13,14,46,16.10
2006,10,13,14,47,16.10
2006,10,13,14,48,16.10
2006,10,13,14,49,16.10
2006,10,13,14,50,16.10
2006,10,13,14,51,16.10
2006,10,13,14,52,16.10
2006,10,13,14,53,16.10
2006,10,13,14,54,16.10
2006,10,13,14,55,16.10
2006,10,13,14,56,16.10
2006,10,13,14,57,16.20
2006,10,13,14,58,16.20
2006,10,13,14,59,16.20
2006,10,13,15,00,16.40
2006,10,13,15,01,16.40
2006,10,13,15,02,16.60
2006,10,13,15,03,16.50
2006,10,13,15,04,16.40
2006,10,13,15,05,16.40
2006,10,13,15,06,16.40
2006,10,13,15,07,16.40
2006,10,13,15,08,16.30
2006,10,13,15,09,16.40
2006,10,13,15,10,16.30
2006,10,13,15,11,16.30
2006,10,13,15,12,16.30
2006,10,13,15,13,16.20
2006,10,13,15,14,16.20
2006,10,13,15,15,16.20
2006,10,13,15,16,16.10
2006,10,13,15,17,16.10
2006,10,13,15,18,16.10
2006,10,13,15,19,16.00
2006,10,13,15,20,15.90
2006,10,13,15,21,15.70
2006,10,13,15,22,15.70
2006,10,13,15,23,15.60
2006,10,13,15,24,15.50
2006,10,13,15,25,15.40
2006,10,13,15,26,15.50
2006,10,13,15,27,15.50
2006,10,13,15,28,15.50
2006,10,13,15,29,15.40
2006,10,13,15,30,15.40
2006,10,13,15,31,15.30
2006,10,13,15,32,15.20
2006,10,13,15,33,15.10
2006,10,13,15,34,15.00
2006,10,13,15,35,15.00
2006,10,13,15,36,14.90
2006,10,13,15,37,14.90
2006,10,13,15,38,14.80
2006,10,13,15,39,14.80
2006,10,13,15,40,14.80
2006,10,13,15,41,14.80
2006,10,13,15,42,14.90
2006,10,13,15,43,15.00
2006,10,13,15,44,15.10
2006,10,13,15,45,15.20
2006,10,13,15,46,15.30
2006,10,13,15,47,15.30
2006,10,13,15,48,15.30
2006,10,13,15,49,15.30
2006,10,13,15,50,15.40
2006,10,13,15,51,15.40
2006,10,13,15,52,15.40
2006,10,13,15,53,15.40
2006,10,13,15,54,15.40
2006,10,13,15,55,15.40
2006,10,13,15,56,15.40
2006,10,13,15,57,15.50
2006,10,13,15,58,15.50
2006,10,13,15,59,15.50
2006,10,13,16,00,15.50
2006,10,13,16,01,15.50
2006,10,13,16,02,15.40
2006,10,13,16,03,15.40
2006,10,13,16,04,15.40
2006,10,13,16,05,15.40
2006,10,13,16,06,15.40
2006,10,13,16,07,15.30
2006,10,13,16,08,15.30
2006,10,13,16,09,15.30
2006,10,13,16,10,15.30
2006,10,13,16,11,15.30
2006,10,13,16,12,15.30
2006,10,13,16,13,15.30
2006,10,13,16,14,15.30
2006,10,13,16,15,15.10
2006,10,13,16,16,15.10
2006,10,13,16,17,15.20
2006,10,13,16,18,15.20
2006,10,13,16,19,15.30
2006,10,13,16,20,15.30
2006,10,13,16,21,15.30
2006,10,13,16,22,15.30
2006,10,13,16,23,15.30
2006,10,13,16,24,15.30
2006,10,13,16,25,15.30
2006,10,13,16,26,15.30
2006,10,13,16,27,15.40
2006,10,13,16,28,15.40
2006,10,13,16,29,15.40
2006,10,13,16,30,15.40
2006,10,13,16,31,15.40
2006,10,13,16,32,15.30
2006,10,13,16,33,15.30
2006,10,13,16,34,15.30
2006,10,13,16,35,15.30
2006,10,13,16,36,15.30
2006,10,13,16,37,15.30
2006,10,13,16,38,15.30
2006,10,13,16,39,15.30
2006,10,13,16,40,15.30
2006,10,13,16,41,15.30
2006,10,13,16,42,15.30
2006,10,13,16,43,15.30
2006,10,13,16,44,15.40
2006,10,13,16,45,15.30
2006,10,13,16,46,15.30
2006,10,13,16,47,15.30
2006,10,13,16,48,15.30
2006,10,13,16,49,15.30
2006,10,13,16,50,15.40
2006,10,13,16,51,15.40
2006,10,13,16,52,15.30
2006,10,13,16,53,15.30
2006,10,13,16,54,15.20
2006,10,13,16,55,15.10
2006,10,13,16,56,15.00
2006,10,13,16,57,15.00
2006,10,13,16,58,14.90
2006,10,13,16,59,14.80
2006,10,13,17,00,14.80
2006,10,13,17,01,14.80
2006,10,13,17,02,14.80
2006,10,13,17,03,14.80
2006,10,13,17,04,14.80
2006,10,13,17,05,14.80
2006,10,13,17,06,14.80
2006,10,13,17,07,14.80
2006,10,13,17,08,14.80
2006,10,13,17,09,14.80
2006,10,13,17,10,14.80
2006,10,13,17,11,14.80
2006,10,13,17,12,14.80
2006,10,13,17,13,14.80
2006,10,13,17,14,14.80
2006,10,13,17,15,14.80
2006,10,13,17,16,14.70
2006,10,13,17,17,14.70
2006,10,13,17,18,14.70
2006,10,13,17,19,14.70
2006,10,13,17,20,14.60
2006,10,13,17,21,14.60
2006,10,13,17,22,14.60
2006,10,13,17,23,14.50
2006,10,13,17,24,14.50
2006,10,13,17,25,14.50
2006,10,13,17,26,14.50
2006,10,13,17,27,14.50
2006,10,13,17,28,14.50
2006,10,13,17,29,14.50
2006,10,13,17,30,14.50
2006,10,13,17,31,14.40
2006,10,13,17,32,14.30
2006,10,13,17,33,14.20
2006,10,13,17,34,14.20
2006,10,13,17,35,14.10
2006,10,13,17,36,14.10
2006,10,13,17,37,14.00
2006,10,13,17,38,14.00
2006,10,13,17,39,14.00
2006,10,13,17,40,13.90
2006,10,13,17,41,13.90
2006,10,13,17,42,13.80
2006,10,13,17,43,13.80
2006,10,13,17,44,13.70
2006,10,13,17,45,13.70